Overview Statistics Trail Chart Weather Telemetry Raw packets
 

This is the latest recevied weather packets stored in our database for station/object K5OLV. If no packets are shown the sender has not sent any weather packets the latest 10 day(s).

<< 51 52 53 54 55 56 57 >>
Time Temp. Humidity Pressure Rain* Wind** Luminosity Snow
1788277475 30° C 63% 1020.1 hPa 0 mm - 715 W/m² -
1788277169 29.44° C 61% 1020.1 hPa 0 mm - 741 W/m² -
1788276864 29.44° C 61% 1020.2 hPa 0 mm - 738 W/m² -
1788276558 30° C 62% 1020.1 hPa 0 mm - 718 W/m² -
1788276253 29.44° C 62% 1020.3 hPa 0 mm - 704 W/m² -
1788275952 29.44° C 64% 1020.2 hPa 0 mm - 668 W/m² -
1788275647 28.89° C 66% 1020.2 hPa 0 mm - 631 W/m² -
1788275346 28.89° C 64% 1020.2 hPa 0 mm - 636 W/m² -
1788275044 28.89° C 64% 1020.3 hPa 0 mm - 623 W/m² -
1788274742 28.89° C 63% 1020.4 hPa 0 mm - 578 W/m² -
1788274442 28.89° C 64% 1020.2 hPa 0 mm - 598 W/m² -
1788274136 28.33° C 65% 1020.2 hPa 0 mm - 583 W/m² -
1788273832 28.33° C 65% 1019.9 hPa 0 mm - 539 W/m² -
1788273528 28.33° C 65% 1020.1 hPa 0 mm - 548 W/m² -
1788273224 27.78° C 65% 1020.1 hPa 0 mm - 550 W/m² -
1788272920 28.33° C 64% 1020 hPa 0 mm - 533 W/m² -
1788272619 28.33° C 63% 1020.3 hPa 0 mm - 509 W/m² -
1788272314 27.78° C 64% 1020.1 hPa 0 mm - 501 W/m² -
1788272009 27.78° C 64% 1020.1 hPa 0 mm - 463 W/m² -
1788271708 27.78° C 64% 1020.2 hPa 0 mm - 425 W/m² -
1788271406 27.78° C 64% 1019.9 hPa 0 mm - 411 W/m² -
1788271101 28.33° C 64% 1020 hPa 0 mm - 376 W/m² -
1788270796 28.33° C 63% 1019.8 hPa 0 mm - 350 W/m² -
1788270493 29.44° C 70% 1019.9 hPa 0 mm - 332 W/m² -
1788270187 28.33° C 74% 1019.9 hPa 0 mm - 309 W/m² -

* Rain latest hour (hover to see other rain measurements)
** Current wind speed in m/s (hover to see current wind gust speed)